SPACEBEE-4 1 43139U 18004AE 21018.78794084 .00003066 00000-0 11448-3 0 9998 2 43139 97.4325 97.4501 0008236 22.5245 337.6355 15.28133425168019 SPACEBEE-3 1 43140U 18004AF 21019.17231170 .00003062 00000-0 10988-3 0 9990 2 43140 97.4347 98.9240 0007616 18.9031 341.2491 15.29443936168142 SPACEBEE-2 1 43141U 18004AG 21018.77398083 .00004159 00000-0 14628-3 0 9996 2 43141 97.4364 98.9442 0007534 19.0948 341.0574 15.29891135168108 SPACEBEE-1 1 43142U 18004AH 21019.20516525 .00003530 00000-0 12255-3 0 9995 2 43142 97.4370 99.7915 0007349 16.7911 343.3572 15.30428234168187 SPACEBEE-7 1 43816U 18099BL 21018.60048387 .00000576 00000-0 56473-4 0 9994 2 43816 97.6860 92.8736 0013720 174.1820 185.9563 14.95928340115651 SPACEBEE-5 1 43817U 18099BM 21019.18218364 .00000416 00000-0 41290-4 0 9997 2 43817 97.6935 94.3053 0013419 172.5859 187.5563 14.96867190115770 SPACEBEE-6 1 43818U 18099BN 21018.73149209 .00000649 00000-0 62572-4 0 9993 2 43818 97.6881 93.2670 0013701 173.7732 186.3662 14.96214844115837 SPACEBEE-9 1 44370U 19037F 21018.82396143 .00015194 00000-0 27739-3 0 9997 2 44370 45.0049 347.5558 0011375 35.9639 324.2016 15.49275105 87924 SPACEBEE-8 1 44371U 19037G 21018.82931745 .00047734 00000-0 52878-3 0 9998 2 44371 45.0039 328.9845 0009663 95.6112 264.5886 15.62234228 88144 SPACEBEE-21 1 46300U 20061AE 21018.76569797 .00001743 00000-0 10737-3 0 9996 2 46300 97.5060 95.4110 0001957 127.8386 232.3022 15.11277228 20685 SPACEBEE-20 1 46301U 20061AF 21018.76481487 .00001811 00000-0 11137-3 0 9997 2 46301 97.5064 95.4162 0001966 126.6834 233.4577 15.11292377 20681 SPACEBEE-15 1 46302U 20061AG 21018.76226123 .00001823 00000-0 11190-3 0 9994 2 46302 97.5059 95.4132 0001875 124.3154 235.8254 15.11345392 20686 SPACEBEE-19 1 46303U 20061AH 21018.82994433 .00001845 00000-0 11332-3 0 9990 2 46303 97.5061 95.4800 0001954 126.0032 234.1380 15.11313778 20690 SPACEBEE-18 1 46304U 20061AJ 21018.76368204 .00001818 00000-0 11171-3 0 9996 2 46304 97.5061 95.4144 0001946 125.3428 234.7984 15.11309112 20686 SPACEBEE-10 1 46305U 20061AK 21018.75779569 .00002228 00000-0 13553-3 0 9998 2 46305 97.5061 95.4217 0001858 127.7075 232.4323 15.11456509 20689 SPACEBEE-17 1 46306U 20061AL 21018.76190612 .00001896 00000-0 11626-3 0 9995 2 46306 97.5062 95.4184 0001952 125.2356 234.9058 15.11347367 20722 SPACEBEE-11 1 46307U 20061AM 21018.75903726 .00002145 00000-0 13075-3 0 9991 2 46307 97.5061 95.4209 0001899 126.1692 233.9714 15.11419734 20684 SPACEBEE-16 1 46308U 20061AN 21018.76135263 .00001941 00000-0 11887-3 0 9998 2 46308 97.5063 95.4204 0001942 124.6627 235.4786 15.11359126 20686 SPACEBEE-12 1 46309U 20061AP 21019.15683984 .00001742 00000-0 10695-3 0 9996 2 46309 97.5061 95.8102 0001923 125.1821 234.9589 15.11401891 20746 SPACEBEE-13 1 46310U 20061AQ 21018.76039998 .00002022 00000-0 12356-3 0 9992 2 46310 97.5062 95.4205 0001924 124.7675 235.3736 15.11382657 20727 SPACEBEE-14 1 46311U 20061AR 21018.76014212 .00002050 00000-0 12527-3 0 9996 2 46311 97.5063 95.4213 0001938 124.4688 235.6725 15.11380523 20714 SPACEBEE-34 1 46933U 20085E 21018.91177329 .00003912 00000-0 17494-3 0 9994 2 46933 97.3745 158.3240 0017322 91.2463 269.0756 15.21763546 9098 SPACEBEE-35 1 46934U 20085F 21018.91222877 .00003981 00000-0 17807-3 0 9998 2 46934 97.3713 158.3231 0017181 91.7125 268.6077 15.21741376 9095 SPACEBEE-36 1 46935U 20085G 21018.91239214 .00003711 00000-0 16622-3 0 9997 2 46935 97.3747 158.3245 0017232 91.7565 268.5643 15.21736921 9091 SPACEBEE-37 1 46936U 20085H 21018.91361225 .00003527 00000-0 15837-3 0 9998 2 46936 97.3750 158.3223 0017144 91.5945 268.7254 15.21687673 9093 SPACEBEE-38 1 46937U 20085J 21018.91482214 .00003452 00000-0 15529-3 0 9996 2 46937 97.3728 158.3166 0017114 90.9752 269.3441 15.21646322 9092 SPACEBEENZ-3 1 46938U 20085K 21018.92020212 .00002270 00000-0 10389-3 0 9990 2 46938 97.3742 158.3136 0017647 89.8898 270.4359 15.21399171 9093 SPACEBEENZ-4 1 46939U 20085L 21018.92074468 .00002200 00000-0 10082-3 0 9996 2 46939 97.3741 158.3116 0017678 89.4707 270.8551 15.21376222 9090 SPACEBEENZ-5 1 46941U 20085N 21018.92180134 .00002276 00000-0 10430-3 0 9997 2 46941 97.3736 158.3080 0017458 89.8917 270.4314 15.21344596 9092 SPACEBEENZ-6 1 46942U 20085P 21018.92184798 .00002069 00000-0 95117-4 0 9994 2 46942 97.3739 158.3106 0017431 89.9106 270.4110 15.21343233 9098 SPACEBEE-33 1 46944U 20085R 21018.94006873 .00003273 00000-0 15029-3 0 9996 2 46944 97.3719 158.2748 0016424 100.4144 259.8928 15.20977289 9092 SPACEBEE-32 1 46945U 20085S 21018.94088152 .00003320 00000-0 15248-3 0 9993 2 46945 97.3734 158.2742 0016481 100.4417 259.8673 15.20961774 9099 SPACEBEE-30 1 46946U 20085T 21019.13835906 .00003246 00000-0 14912-3 0 9997 2 46946 97.3738 158.4689 0016505 100.0403 260.2691 15.20967031 9126 SPACEBEE-31 1 46947U 20085U 21019.13870549 .00003377 00000-0 15505-3 0 9994 2 46947 97.3734 158.4673 0016474 99.3101 260.9998 15.20957969 9122 SPACEBEE-28 1 46948U 20085V 21018.94143292 .00003465 00000-0 15901-3 0 9999 2 46948 97.3738 158.2778 0016583 101.3971 258.9128 15.20963577 9091 SPACEBEE-29 1 46949U 20085W 21018.94120365 .00003541 00000-0 16237-3 0 9994 2 46949 97.3737 158.2771 0016587 101.3062 259.0034 15.20968701 9091 SPACEBEE-27 1 46950U 20085X 21018.94231740 .00003592 00000-0 16478-3 0 9999 2 46950 97.3732 158.2762 0016623 101.0668 259.2434 15.20947905 9097 SPACEBEE-25 1 46951U 20085Y 21018.94181418 .00003860 00000-0 17660-3 0 9998 2 46951 97.3743 158.2796 0016576 102.8766 257.4320 15.20990789 9094 SPACEBEE-24 1 46952U 20085Z 21018.94258879 .00003641 00000-0 16696-3 0 9990 2 46952 97.3730 158.2790 0016681 103.1810 257.1282 15.20951273 9095 SPACEBEE-22 1 46953U 20085AA 21018.87612032 .00003828 00000-0 17519-3 0 9990 2 46953 97.3732 158.2138 0016790 102.9591 257.3517 15.20983865 9082 SPACEBEE-26 1 46956U 20085AD 21018.94272349 .00003543 00000-0 16261-3 0 9991 2 46956 97.3724 158.2788 0016734 102.4430 257.8676 15.20937903 9018 SPACEBEENZ-2 1 46957U 20085AE 21018.91925772 .00002355 00000-0 10755-3 0 9996 2 46957 97.3744 158.3150 0017697 90.7244 269.6013 15.21428750 9052 SPACEBEE-39 1 46958U 20085AF 21018.91558427 .00003306 00000-0 14898-3 0 9995 2 46958 97.3734 158.3144 0017198 90.8011 269.5195 15.21612999 8390 SPACEBEENZ-1 1 46959U 20085AG 21018.91857206 .00002406 00000-0 10973-3 0 9993 2 46959 97.3747 158.3183 0017714 90.4906 269.8353 15.21456693 8577 SPACEBEE-23 1 46960U 20085AH 21018.94208401 .00003737 00000-0 17117-3 0 9990 2 46960 97.3750 158.2812 0016683 101.6574 258.6532 15.20975802 8225